Regional Weather Roundup
Issued by NWS

Home | Current Version | Previous Version | Graphics & Text | Print | Product List | Glossary On
Versions: 1 2 3 4 5 6 7 8 9 10 11 12 13 14 15 16 17 18 19 20 21 22 23 24 25 26 27 28 29 30 31 32 33 34 35 36 37 38 39 40 41 42 43 44 45 46 47 48 49 50
473
ASUS45 KBOU 230307
RWRCO

WEATHER ROUNDUP FOR COLORADO
NATIONAL WEATHER SERVICE DENVER/BOULDER CO
900 PM MDT MON MAY 22 2017

NOTE: "FAIR" INDICATES FEW OR NO CLOUDS BELOW 12000 FEET WITH NO
SIGNIFICANT WEATHER AND/OR OBSTRUCTIONS TO VISIBILITY.

COZ001>005-013-030-031-230400-
...NORTHWEST COLORADO...

CITY           SKY/WX    TMP DP  RH WIND       PRES   REMARKS
CRAIG          LGT RAIN  47  35  63 SE6       30.29R
HAYDEN         CLOUDY    43  30  61 E3        30.32R
MEEKER         CLOUDY    48  37  65 N5        30.28R
RABBIT EARS PA LGT SNOW  28  27  93 N5        30.35R WCI  23
STEAMBOAT SPGS CLOUDY    38  34  85 SW6       30.28R
WALDEN           N/A     34  30  86 MISG      30.32S
$$

COZ006>008-011-230400-
...WEST CENTRAL VALLEYS...

CITY           SKY/WX    TMP DP  RH WIND       PRES   REMARKS
GRAND JUNCTION MOCLDY    62  38  40 NE24G35   30.10R
MONTROSE       MOCLDY    60  33  36 N17G30    30.15R
EAGLE          LGT RAIN  45  35  68 E15       30.28R
RIFLE          MOCLDY    56  39  53 NW9       30.21R
DELTA          MOCLDY    63  34  33 N17       30.12S
NUCLA          FAIR      61  28  29 CALM      30.17S
$$

COZ017>023-064>068-230400-
...SOUTHWEST COLORADO...

CITY           SKY/WX    TMP DP  RH WIND       PRES   REMARKS
DURANGO        FAIR      58  20  22 NW8       30.13R
CORTEZ         FAIR      62  29  28 NW8       30.13R
PAGOSA SPRINGS FAIR      57  17  20 NW15G21   30.18R
TELLURIDE      CLOUDY    51  20  29 N6        30.30S
WOLF CREEK PAS FAIR      32  18  55 NW3       30.42S
$$

COZ009-010-012-014-032>034-037-058>063-230400-
...CENTRAL COLORADO...

CITY           SKY/WX    TMP DP  RH WIND       PRES   REMARKS
ASPEN          RAIN      41  39  93 S7        30.27S
BUENA VISTA    LGT RAIN  44  34  69 NW15G31   30.25R
COPPER MTN     CLOUDY    32  28  86 MISG      30.36S
BERTHOUD PASS  CLOUDY    21  10  63 MISG      30.33S
COTTONWOOD PAS LGT SNOW  37  34  87 SW14      30.29R
GUNNISON       FAIR      47  33  58 N9        30.24R
KREMMLING      RAIN      41  36  81 W6        30.32S
LEADVILLE      LGT SNOW  32  30  92 N10       30.30R FOG     WCI  24
MONARCH PASS   CLOUDY    32  25  74 W20G26    30.47R WCI  20
SALIDA         CLOUDY    53  32  46 NW10G18   30.27R
SUNLIGHT       CLOUDY    32  32 100 W8        30.39S WCI  25
WILKERSON PASS LGT SNOW  30  28  93 W5        30.36R WCI  25
$$

COZ069>075-230400-
...SAN LUIS VALLEY/SANGRE DE CRISTO MOUNTAINS...

CITY           SKY/WX    TMP DP  RH WIND       PRES   REMARKS
ALAMOSA        FAIR      53  29  39 N13G23    30.14R
DEL NORTE      FAIR      53  21  28 N16       30.19R
LA VETA PASS   DRZL/FOG  34  32  93 NE17G23   30.40R VSB 3/4 WCI  23
SAGUACHE       FAIR      52  28  40 N8        30.21R
$$

COZ035-036-038>040-230400-
...NORTHERN COLORADO FRONT RANGE...

CITY           SKY/WX    TMP DP  RH WIND       PRES   REMARKS
DENVER INTL AP MOCLDY    45  39  79 W5        30.23R
DMNS CITY PARK   N/A     44  42  92 SW5       30.25S
AURORA         MOCLDY    43  40  89 S5        30.25R
FRONT RANGE AP MOCLDY    45  41  87 W7        30.25R
ERIE MUNI ARPT CLOUDY    45  42  89 CALM      30.24S
BOULDER MUN AP CLOUDY    45  43  93 E5        30.24R
CENTENNIAL     LGT RAIN  43  38  82 N8        30.26R
BROOMFIELD     CLOUDY    45  41  87 CALM      30.24R
FORT COLLINS   FAIR      46  37  71 NW7       30.22R
LONGMONT       FAIR      46  43  87 S3        30.25R
$$

COZ041-046-047-076>085-087-088-230400-
...PIKES PEAK/PALMER DIVIDE AND SOUTHERN FOOTHILLS...

CITY           SKY/WX    TMP DP  RH WIND       PRES   REMARKS
COLO. SPRINGS  LGT RAIN  43  36  76 NW21G30   30.24R
A. F. ACADEMY  LGT RAIN  38  36  91 N17G25    30.25R
SCHRIEVER AFB  LGT RAIN  40  35  84 N18G30    30.23R
CHEYENNE MTN   LGT RAIN  39  36  87 N21G28    30.17R
ELLICOTT       CLOUDY   N/A N/A N/A N29G39    30.19R
FALCON         LGT RAIN  37  35  93 N20G29    30.25R
FORT CARSON    CLOUDY    43  36  78 N33G48    30.19S
LIMON          MOCLDY    43  37  79 NW18      30.19S
MONUMENT HILL  LGT RAIN  34  32  93 NW14      30.29R WCI  24
CANON CITY     NOT AVBL
WALSENBURG     CLOUDY    48  46  93 NE17G25   30.23R
TRINIDAD       LGT RAIN  49  43  80 N33G45    30.15R
$$

COZ042>045-048>051-090-091-230400-
...NORTHEAST COLORADO...

CITY           SKY/WX    TMP DP  RH WIND       PRES   REMARKS
GREELEY ARPT   FAIR      48  40  73 NW9       30.22
AKRON          FAIR      42  37  82 NW10      30.17R
BURLINGTON     CLOUDY    49  45  86 NW14      30.12S
WRAY           FAIR      48  43  81 NW12      30.12R
YUMA           FAIR      46  30  53 NW15G22   30.14R
STERLING       FAIR      46  37  71 N9        30.16R
HOLYOKE        NOT AVBL
FORT MORGAN    FAIR      42  37  84 W7        30.20R
$$

COZ086-089-092>099-230400-
...SOUTHEAST COLORADO...

CITY           SKY/WX    TMP DP  RH WIND       PRES   REMARKS
PUEBLO         MOCLDY    51  38  60 N36G46    30.14R
LA JUNTA       CLOUDY    53  41  63 N31G40    30.14R
LAMAR          MOCLDY    54  42  64 N28G43    30.07R
SPRINGFIELD      N/A     52  47  83 N21G33    30.09R
$$




USA.gov is the U.S. government's official web portal to all federal, state and local government web resources and services.